Regional Weather Roundup
Issued by NWS Cleveland, OH

Home | Current Version | Previous Version | Graphics & Text | Print | Product List | Glossary On
Versions: 1 2 3 4 5 6 7 8 9 10 11 12 13 14 15 16 17 18 19 20 21 22 23 24 25 26 27 28 29 30 31 32 33 34 35 36 37 38 39 40 41 42 43 44 45 46 47 48 49 50
000
ASUS41 KCLE 100002
RWRCLE
OHIO REGIONAL WEATHER ROUNDUP
NATIONAL WEATHER SERVICE CLEVELAND, OH
700 PM EST FRI DEC 09 2016

NOTE: "FAIR" INDICATES FEW OR NO CLOUDS BELOW 12,000 FEET WITH NO
SIGNIFICANT WEATHER AND/OR OBSTRUCTIONS TO VISIBILITY.

OHZ001>008-015>018-024>027-034-035-043-044-100100-
   NORTHWEST OHIO

CITY           SKY/WX    TMP DP  RH WIND       PRES   REMARKS
DEFIANCE       CLOUDY    27  18  69 VRB7      30.47R WCI  19
FINDLAY        CLOUDY    27  18  69 SW12      30.45R WCI  17
TOLEDO EXPRESS CLOUDY    27  20  75 W10       30.44R WCI  17
TOLEDO EXEC    CLOUDY    28  21  75 W12       30.44R WCI  18
LIMA           CLOUDY    25  19  78 SW10      30.46R WCI  15
$$

OHZ009>014-019>023-028>033-038-089-100100-
   NORTHEAST OHIO

CITY           SKY/WX    TMP DP  RH WIND       PRES   REMARKS
CLE-HOPKINS    PTCLDY    27  20  75 SW12      30.43R WCI  17
CLE-LAKEFRONT  CLOUDY    28  22  78 SW13      30.40S WCI  17
CUY CO. ARPT   SNOW      27  27 100 W12       30.40S VSB 1/4 WCI  16
LORAIN-ELYRIA  MOCLDY    25  20  81 W13       30.41S WCI  14
ASHTABULA      FLURRIES  26  23  88 SW8       30.37R WCI  18
AKRON-CANTON   CLOUDY    26  19  74 SW9       30.40S WCI  17
WOOSTER        CLOUDY    25  19  78 W12       30.42S WCI  14
MANSFIELD      CLOUDY    24  20  84 SW13      30.41S WCI  12
YOUNGSTOWN     FLURRIES  24  18  77 W12       30.37R WCI  13
$$

OHZ042-051>053-060>062-070>072-077>081-100100-
  SOUTHWEST OHIO

CITY           SKY/WX    TMP DP  RH WIND       PRES   REMARKS
CINC-COVINGTON FLURRIES  24  14  65 W9        30.54R WCI  14
CINC-LUNKEN    CLOUDY    26  15  63 SW10      30.58R WCI  16
HAMILTON       CLOUDY    26  16  65 SW8       30.55R WCI  18
DAYTON         NOT AVBL
WRIGHT-PAT AFB NOT AVBL
DAYTON GENERAL CLOUDY    26  16  65 W7        30.50R WCI  18
WILMINGTON     CLOUDY    23  15  71 SW15      30.49R WCI  10
$$

OHZ036-037-039>041-045>050-054>059-063>069-073>076-082>088-100100-
  CENTRAL AND SOUTHEAST OHIO

CITY           SKY/WX    TMP DP  RH WIND       PRES   REMARKS
COLUMBUS       LGT SNOW  25  21  85 W10       30.48S FOG     WCI  15
OSU AIRPORT    FLURRIES  25  18  74 W9        30.48S WCI  15
BOLTON FIELD   FLURRIES  25  19  77 W6        30.49S WCI  18
RICKENBACK AFB   N/A     26  18  70 W9        30.49S WCI  17
NEWARK         CLOUDY    26  19  74 W10       30.47S WCI  16
MARION         CLOUDY    25  19  78 W8        30.45S WCI  16
LANCASTER      FLURRIES  25  19  78 SW10      30.49S WCI  15
ZANESVILLE     CLOUDY    27  20  75 W8        30.47S WCI  19
NEW PHILLY     CLOUDY    25  21  85 SW3       30.46
$$




USA.gov is the U.S. government's official web portal to all federal, state and local government web resources and services.